Location: Newark
(25.0000°N, 73.5000°E)
Time: 17:29:22
(UTC+00:00)

N. Korean satellite - Visible Passes

Search period start: 27 January 2021 00:00
Search period end: 06 February 2021 00:00
Orbit: 452 x 502 km, 97.2° (Epoch: 27 January)

Date Brightness Start Highest point End Pass type
(mag) Time Alt. Az. Time Alt. Az. Time Alt. Az.
27 Jan 7.0 00:48:57 10° N 00:52:03 33° WNW 00:55:07 10° SW visible
28 Jan 6.4 00:22:07 10° NNE 00:25:32 84° ESE 00:28:54 10° S visible
28 Jan 8.4 23:55:56 10° NE 23:58:55 29° E 00:01:54 10° SSE visible
29 Jan 9.9 23:31:05 10° ENE 23:32:14 11° E 23:33:24 10° ESE visible
30 Jan 7.7 01:02:52 10° NNW 01:05:27 20° WNW 01:08:02 10° SW visible
31 Jan 6.4 00:35:37 10° N 00:38:57 55° WNW 00:42:17 10° SSW visible
01 Feb 7.3 00:09:05 10° NNE 00:12:23 48° E 00:15:40 10° S visible
01 Feb 9.3 23:43:18 10° NE 23:45:44 18° E 23:48:09 10° SE visible
02 Feb 8.2 01:17:09 10° NW 01:18:48 13° WNW 01:20:27 10° WSW visible
03 Feb 7.1 00:49:16 10° NNW 00:52:19 32° WNW 00:55:24 10° SW visible
04 Feb 6.3 00:22:23 10° NNE 00:25:47 86° E 00:29:11 10° S visible
04 Feb 8.4 23:56:09 10° NE 23:59:09 29° E 00:02:10 10° SSE visible
05 Feb 9.9 23:31:11 10° ENE 23:32:27 12° E 23:33:44 10° ESE visible
